Wind_Speed
20 21 21 21 22 22 22 21 21 22 22 22 23 23 23 23 23 23 22 21 21 21 21 21 21 22 22 22 22 23 23 24 24 24 24 24 24 23 23 22 21 20 19 19 18 17 16 15 14
21 21 22 23 23 23 23 23 23 23 24 24 24 25 25 25 25 24 24 23 23 24 24 24 24 23 23 23 24 24 25 25 25 25 25 25 25 25 24 24 23 22 22 21 20 19 19 18 16
22 22 23 23 24 24 25 24 25 25 25 26 26 27 27 27 27 26 26 26 25 26 26 26 26 26 26 26 26 26 27 27 27 27 27 27 27 26 26 25 25 24 24 23 23 22 21 20 18
23 24 24 25 25 25 26 26 26 27 27 27 28 28 28 29 28 28 28 28 28 28 29 29 29 29 29 29 28 28 29 29 29 29 29 29 28 28 28 27 26 26 25 25 24 24 23 22 21
23 24 25 25 25 26 27 27 28 28 28 28 29 30 30 30 31 31 31 31 31 31 31 31 31 32 32 32 32 32 31 32 32 31 31 31 30 30 30 29 28 28 27 27 26 25 25 25 23
22 23 24 24 25 26 26 27 29 29 30 30 31 32 31 32 32 33 33 34 34 34 34 34 34 34 34 34 34 34 34 34 35 35 34 33 33 32 32 32 31 30 30 29 28 27 27 26 26
20 21 22 23 25 26 26 28 29 30 31 31 32 33 33 34 34 35 36 37 37 37 37 37 37 37 38 38 38 38 37 37 37 37 37 36 36 35 35 34 33 33 32 31 30 29 28 28 27
19 20 21 22 23 24 25 27 28 30 31 32 33 34 34 35 35 36 37 38 39 40 40 40 40 40 40 40 40 41 41 40 40 40 40 39 39 39 38 37 36 35 35 34 33 31 31 30 29
19 20 20 21 22 23 24 26 27 29 31 33 34 35 36 37 37 38 39 40 41 42 43 43 43 43 43 43 43 44 44 44 44 43 43 43 42 42 41 41 39 38 37 37 36 35 34 33 31
17 18 19 21 22 23 25 26 28 29 31 33 35 36 37 38 39 40 40 41 43 44 45 46 46 46 46 46 46 47 47 47 47 47 46 45 45 44 44 44 42 41 40 39 38 37 37 36 34
16 18 19 20 22 23 24 26 28 30 31 33 35 36 38 39 41 41 42 43 44 45 46 48 49 49 49 49 49 49 49 50 50 50 49 48 48 47 47 46 45 44 43 42 40 40 39 38 37
17 18 19 21 22 24 25 27 28 31 32 33 34 36 38 39 42 43 44 45 46 47 48 49 50 51 51 52 52 52 52 52 53 53 52 51 50 50 49 48 48 47 46 44 43 42 41 40 40
17 18 20 22 23 25 26 28 29 31 33 34 36 37 39 40 42 44 45 46 47 48 49 50 51 52 53 53 54 55 55 55 56 56 55 54 53 52 52 51 50 50 49 47 46 45 44 42 42
19 20 21 23 24 25 27 28 29 30 32 34 36 38 39 40 42 43 44 46 47 49 49 50 51 52 53 54 55 56 57 57 57 57 57 57 57 56 55 54 53 53 52 51 49 48 47 46 45
20 21 22 23 25 26 27 28 30 30 32 34 36 38 38 40 41 42 43 46 47 48 49 50 51 52 53 54 55 56 57 58 59 59 59 60 60 59 59 57 56 56 55 54 53 51 50 49 48
21 22 23 23 25 26 27 27 30 31 32 33 35 36 37 39 40 41 42 44 45 46 48 49 50 52 53 55 56 56 57 58 60 60 61 62 63 63 62 60 59 59 58 57 56 55 54 52 51
23 23 23 24 24 25 26 27 29 31 31 32 33 34 36 37 38 39 41 42 44 45 46 48 49 51 53 54 55 56 57 58 59 60 62 63 64 65 65 64 62 61 61 60 59 58 57 56 55
23 24 24 24 25 26 26 27 29 31 31 32 33 34 34 35 37 38 40 41 42 44 45 45 46 50 53 54 55 56 57 59 59 61 63 64 64 65 66 66 65 64 63 62 61 61 60 58 57
24 24 24 24 25 26 26 27 28 29 31 31 32 33 34 34 35 37 39 40 41 43 44 44 46 48 51 52 53 54 56 58 59 60 61 62 64 65 66 66 66 65 64 64 64 63 62 61 60
24 25 25 26 26 27 26 26 27 28 29 31 31 31 32 34 34 35 37 39 41 41 42 42 43 45 48 50 51 52 54 55 57 59 60 61 62 64 66 65 66 66 66 66 66 65 64 63 61
25 26 27 27 27 27 28 27 28 29 30 30 31 31 32 34 34 34 35 38 39 40 41 42 42 43 46 48 50 52 54 56 56 57 58 59 60 62 64 64 65 66 67 66 66 65 65 63 62
26 27 28 28 28 28 28 29 29 30 30 30 31 32 34 34 34 35 36 38 39 40 41 42 42 44 45 46 50 52 53 54 54 55 56 58 59 60 61 62 62 63 63 63 62 63 63 62 62
28 28 29 29 29 29 29 30 30 30 30 31 32 33 35 35 35 36 36 37 39 40 41 42 43 44 45 46 47 49 51 52 52 53 54 56 58 59 59 60 60 60 60 60 60 60 61 61 60
29 29 30 29 29 29 29 31 32 32 31 32 32 33 34 35 36 36 37 38 39 40 40 41 43 43 44 46 47 48 50 50 50 51 52 53 56 58 59 60 59 57 59 60 60 59 59 59 59
29 30 31 31 31 31 30 31 32 33 33 33 34 34 35 36 37 38 39 39 41 41 40 40 41 42 43 44 46 48 48 48 48 48 50 51 53 55 57 58 59 57 57 58 59 59 58 57 58
29 30 30 32 33 33 32 32 33 34 35 36 36 37 37 37 38 40 41 41 41 41 40 40 40 41 43 44 45 46 46 46 47 47 49 50 50 52 54 57 57 56 55 56 56 57 58 58 57
30 30 31 33 35 35 34 34 34 35 36 36 37 37 38 38 39 41 41 41 42 42 41 41 41 41 41 42 44 44 44 44 44 44 46 47 48 50 51 54 55 55 55 56 56 55 57 58 57
31 32 32 33 36 38 36 35 36 37 37 37 38 39 39 39 40 41 41 41 43 42 42 42 42 41 41 42 43 42 41 41 41 41 41 43 45 46 49 52 53 53 54 55 56 54 55 56 56
32 32 33 35 36 38 39 37 38 38 39 39 39 39 39 40 41 42 41 42 43 42 42 42 41 40 40 40 40 39 38 38 37 37 39 40 42 43 45 49 51 51 53 55 56 54 53 53 53
33 33 34 35 36 37 39 37 37 38 39 40 40 40 41 40 41 42 42 43 43 43 42 42 40 39 38 37 36 36 35 35 35 35 36 37 38 40 42 46 47 48 50 52 53 53 52 51 52
Wind_Direction
254 254 253 253 253 254 254 254 253 251 250 248 247 246 246 246 246 248 249 249 248 248 247 246 246 245 245 244 244 244 244 244 244 243 244 244 245 246 247 247 246 246 246 246 246 246 246 246 248
256 256 255 255 255 256 255 254 253 252 251 250 249 249 248 248 249 249 249 249 249 248 248 248 247 246 246 245 245 245 246 247 247 246 246 246 246 246 247 248 248 247 248 248 249 250 248 247 248
258 258 257 257 256 256 256 254 253 253 252 251 251 250 250 250 250 251 251 250 249 249 249 249 248 248 248 248 247 246 246 247 248 248 248 247 247 247 248 248 249 249 249 250 250 251 252 248 247
259 259 259 259 258 257 257 256 255 254 253 253 253 252 252 251 251 251 251 251 250 250 250 250 250 250 250 250 250 249 248 247 248 248 249 249 249 248 248 248 249 250 251 251 252 252 251 250 250
260 260 260 260 260 259 258 257 256 256 255 254 254 254 253 253 253 252 252 252 252 252 251 251 251 252 252 252 252 252 251 250 249 249 249 249 249 250 249 248 249 250 252 252 253 253 251 251 252
262 261 261 261 261 260 259 258 257 257 257 256 256 256 256 255 254 254 253 253 253 252 252 252 252 252 252 252 253 253 253 252 251 250 250 250 249 250 251 250 250 250 252 253 253 253 251 251 251
263 263 263 262 262 261 260 259 258 258 259 258 258 258 258 257 256 255 255 254 254 254 253 253 253 253 252 252 253 253 253 253 253 252 251 251 250 250 251 251 250 250 251 253 253 253 252 251 250
265 264 264 264 264 263 262 261 261 260 260 260 260 260 260 260 259 258 258 257 256 256 255 255 255 255 254 253 253 253 253 253 253 252 252 251 251 251 250 250 251 251 251 252 253 253 252 252 251
268 267 267 267 266 266 266 266 265 264 264 264 263 263 263 262 262 262 261 261 259 258 256 255 255 254 254 254 253 253 253 252 252 252 252 251 251 252 251 250 250 251 252 252 252 253 253 252 251
274 272 271 271 270 269 268 269 269 269 267 265 265 265 265 265 264 264 264 263 262 260 258 256 255 255 254 254 254 253 253 252 252 251 252 251 251 252 252 251 250 250 251 251 251 252 253 253 252
282 280 278 276 275 274 273 273 273 272 271 270 268 267 267 267 266 265 265 264 263 262 261 259 257 256 255 255 255 254 253 253 252 251 251 251 251 251 252 251 250 248 249 250 250 251 252 253 252
290 286 283 280 279 278 278 277 275 274 273 272 273 272 271 269 268 267 266 265 264 263 263 261 259 258 257 256 255 255 254 254 253 252 251 250 250 251 251 251 250 249 248 249 250 250 251 252 252
294 292 288 285 283 282 282 281 279 277 276 275 275 275 274 272 271 270 268 267 266 265 265 263 261 258 257 256 256 255 255 254 254 253 251 250 249 250 250 250 250 250 248 248 250 249 249 251 251
296 295 292 289 287 286 284 283 281 281 280 280 279 279 277 274 274 273 271 269 268 267 266 264 261 258 257 257 256 255 255 254 253 253 252 251 250 250 249 250 250 250 249 248 248 249 249 250 251
299 298 297 294 292 291 289 287 286 285 285 285 284 282 280 277 277 277 274 272 270 268 266 264 261 258 257 257 257 256 254 253 253 253 252 252 250 249 249 249 249 249 248 247 248 248 249 250 250
302 301 301 300 297 295 292 293 290 289 289 289 288 285 283 280 279 279 278 275 272 269 267 264 261 259 258 258 257 256 255 254 253 253 252 252 250 249 248 248 249 249 248 248 247 247 248 249 249
303 303 304 303 302 300 296 296 295 294 294 293 292 289 287 285 284 283 281 278 275 271 268 265 262 261 260 259 259 258 257 256 255 254 253 252 251 250 248 247 248 248 248 248 247 247 248 249 249
305 304 305 304 304 303 300 297 296 297 297 297 297 294 293 291 290 288 285 281 279 275 271 266 264 263 261 260 259 258 258 258 258 257 255 253 251 250 250 248 247 247 248 247 247 247 247 247 247
306 306 306 305 304 304 302 299 298 297 297 298 299 298 297 296 295 292 288 284 284 281 275 270 268 266 263 261 260 259 259 258 259 258 257 255 253 251 250 249 248 248 248 247 246 246 246 246 246
305 306 306 305 304 304 304 303 302 300 301 302 301 301 300 300 299 295 291 289 287 284 279 275 273 270 266 263 261 261 261 261 260 260 259 257 254 252 250 248 248 248 247 246 245 245 245 245 244
304 305 305 305 305 305 306 306 305 304 304 304 303 302 301 302 300 298 295 294 291 286 283 280 277 274 271 268 265 265 264 263 262 261 259 257 254 253 251 248 248 247 246 245 244 244 243 244 243
303 304 304 305 305 307 308 308 309 307 307 306 305 304 304 304 303 301 300 298 295 291 288 284 279 277 275 272 270 268 266 265 263 261 259 256 254 252 250 248 246 245 245 244 242 241 241 242 242
302 303 303 304 305 307 309 308 310 310 308 307 306 306 306 306 304 303 303 301 301 297 292 287 282 280 277 276 274 273 269 267 265 262 259 256 254 251 249 247 245 244 243 242 241 240 239 240 240
301 302 302 302 305 307 310 309 310 311 309 307 306 307 307 307 305 305 305 304 304 300 296 291 286 283 281 278 277 275 272 269 266 263 260 257 254 250 248 246 244 243 243 241 240 239 238 238 238
300 301 301 303 305 308 310 309 310 310 310 308 307 307 307 307 307 308 307 306 305 302 299 295 290 286 283 280 279 278 274 270 267 265 263 259 254 251 248 245 242 241 241 240 239 237 236 236 236
298 299 301 303 305 307 308 309 311 311 310 308 308 308 308 308 308 309 309 308 308 305 301 297 292 288 285 283 282 280 275 271 268 265 263 259 254 250 247 244 241 239 239 239 237 236 235 235 235
297 298 299 301 302 305 307 308 309 310 309 309 309 309 309 309 309 310 310 310 309 307 304 300 295 291 287 285 284 281 276 272 270 267 263 259 254 250 247 243 240 239 238 238 236 236 234 234 234
297 299 299 300 302 305 307 309 311 311 311 310 310 311 310 310 311 312 311 311 310 308 306 302 298 294 291 287 284 281 278 275 271 267 262 257 253 250 248 243 239 239 237 236 234 234 233 233 232
296 298 299 298 300 304 306 310 311 311 311 310 310 311 311 311 312 312 313 313 310 308 306 304 300 297 294 291 285 281 279 275 272 268 262 257 252 250 247 242 240 238 237 235 232 231 231 231 231
295 297 298 299 301 302 304 309 309 310 310 311 310 311 312 312 313 313 314 313 311 309 306 303 300 299 297 294 288 282 280 276 270 267 261 256 253 250 248 243 238 235 235 232 230 230 229 229 229
Height
5827 5827 5829 5830 5831 5831 5832 5833 5833 5834 5835 5836 5836 5837 5838 5840 5841 5844 5843 5842 5843 5843 5844 5845 5846 5847 5848 5849 5850 5850 5851 5852 5853 5853 5854 5855 5856 5856 5857 5858 5858 5859 5859 5859 5860 5860 5860 5860 5860
5822 5823 5825 5825 5826 5826 5828 5828 5828 5829 5830 5831 5832 5832 5833 5834 5836 5837 5837 5838 5838 5839 5840 5841 5842 5843 5844 5845 5846 5846 5847 5848 5849 5849 5850 5851 5852 5852 5853 5854 5855 5855 5856 5856 5856 5856 5856 5857 5857
5818 5818 5820 5820 5821 5822 5823 5823 5823 5824 5825 5825 5826 5827 5828 5829 5830 5831 5832 5833 5834 5834 5835 5836 5837 5838 5839 5840 5841 5842 5842 5843 5844 5845 5846 5846 5847 5848 5849 5850 5850 5851 5852 5852 5853 5853 5853 5853 5853
5813 5814 5815 5815 5816 5817 5817 5817 5817 5818 5819 5820 5820 5821 5822 5824 5824 5825 5826 5827 5828 5829 5829 5830 5832 5833 5834 5835 5836 5836 5837 5838 5839 5840 5840 5841 5842 5843 5844 5845 5846 5847 5847 5848 5848 5849 5849 5849 5849
5808 5808 5809 5809 5810 5810 5810 5811 5811 5812 5813 5814 5814 5815 5816 5817 5818 5819 5820 5821 5821 5822 5823 5824 5825 5826 5828 5829 5830 5831 5832 5832 5833 5834 5835 5836 5837 5838 5839 5840 5841 5841 5842 5843 5844 5844 5845 5845 5846
5803 5803 5804 5803 5804 5804 5804 5804 5805 5805 5806 5807 5807 5808 5809 5810 5811 5812 5813 5813 5814 5815 5816 5818 5819 5820 5821 5822 5823 5824 5825 5826 5827 5828 5829 5830 5831 5832 5833 5834 5835 5836 5837 5837 5838 5838 5839 5840 5841
5798 5797 5797 5798 5797 5798 5798 5798 5798 5798 5799 5800 5800 5800 5801 5802 5803 5804 5804 5805 5806 5807 5808 5810 5811 5812 5813 5814 5815 5816 5817 5819 5820 5821 5822 5823 5824 5825 5826 5827 5829 5830 5831 5832 5832 5833 5834 5835 5836
5792 5793 5792 5792 5792 5792 5792 5791 5791 5791 5792 5792 5792 5793 5794 5794 5794 5795 5796 5797 5798 5798 5799 5800 5802 5803 5805 5806 5807 5808 5809 5810 5811 5813 5814 5815 5816 5817 5819 5820 5822 5823 5824 5825 5826 5827 5828 5829 5830
5787 5788 5787 5786 5786 5786 5785 5784 5784 5784 5784 5784 5784 5784 5785 5785 5785 5786 5786 5787 5788 5788 5789 5790 5792 5793 5795 5796 5798 5799 5800 5801 5802 5803 5805 5806 5808 5809 5811 5812 5814 5816 5817 5818 5820 5821 5822 5823 5824
5782 5782 5781 5781 5780 5779 5778 5777 5777 5776 5775 5775 5775 5774 5775 5775 5775 5775 5776 5776 5776 5777 5778 5779 5780 5782 5784 5785 5787 5788 5790 5791 5792 5794 5795 5797 5799 5800 5802 5804 5805 5807 5809 5810 5812 5814 5815 5816 5817
5777 5776 5775 5774 5773 5773 5772 5771 5769 5768 5767 5766 5765 5765 5764 5764 5764 5764 5764 5764 5764 5765 5765 5766 5767 5769 5771 5773 5775 5776 5778 5780 5781 5783 5785 5787 5789 5791 5792 5794 5796 5798 5800 5802 5804 5805 5807 5809 5810
5772 5771 5769 5768 5767 5766 5765 5763 5761 5759 5758 5757 5756 5754 5754 5753 5752 5752 5752 5752 5752 5752 5752 5752 5754 5756 5757 5759 5762 5763 5765 5767 5769 5771 5773 5776 5778 5780 5782 5784 5786 5788 5790 5792 5795 5797 5799 5801 5802
5767 5765 5764 5762 5760 5759 5757 5755 5753 5751 5750 5748 5746 5744 5743 5741 5740 5739 5738 5738 5738 5738 5738 5738 5739 5741 5743 5745 5747 5749 5751 5753 5755 5758 5760 5763 5766 5768 5770 5772 5775 5777 5780 5783 5785 5787 5790 5792 5794
5762 5760 5758 5756 5753 5751 5749 5746 5744 5743 5741 5738 5736 5734 5731 5729 5728 5726 5725 5724 5724 5723 5724 5724 5724 5725 5727 5730 5731 5733 5736 5738 5740 5743 5746 5748 5752 5755 5758 5760 5763 5766 5769 5771 5774 5777 5780 5782 5784
5756 5754 5752 5749 5746 5744 5741 5739 5735 5734 5731 5728 5725 5722 5720 5717 5715 5714 5712 5710 5710 5709 5709 5709 5709 5711 5712 5714 5716 5718 5720 5721 5724 5727 5730 5733 5736 5740 5744 5747 5751 5753 5756 5759 5762 5765 5768 5771 5774
5751 5748 5746 5742 5739 5736 5735 5731 5727 5724 5721 5718 5715 5711 5708 5706 5703 5701 5699 5697 5696 5695 5694 5694 5694 5696 5697 5699 5700 5702 5704 5706 5708 5710 5714 5717 5720 5724 5728 5732 5736 5739 5742 5746 5749 5753 5757 5760 5763
5745 5742 5739 5736 5732 5729 5726 5723 5719 5715 5712 5708 5704 5701 5698 5695 5692 5690 5687 5685 5683 5682 5681 5680 5681 5682 5682 5683 5685 5686 5688 5690 5691 5694 5697 5700 5703 5707 5711 5716 5721 5724 5728 5732 5736 5739 5743 5747 5751
5739 5736 5733 5729 5726 5722 5719 5716 5711 5707 5704 5700 5696 5692 5688 5685 5682 5679 5676 5673 5671 5669 5668 5667 5667 5667 5667 5668 5670 5671 5672 5674 5675 5677 5680 5682 5685 5689 5694 5699 5704 5708 5712 5716 5721 5724 5729 5734 5738
5733 5730 5727 5723 5719 5716 5712 5708 5704 5700 5696 5692 5688 5683 5679 5676 5672 5669 5665 5663 5660 5657 5655 5654 5653 5652 5652 5653 5654 5656 5657 5658 5659 5660 5662 5664 5667 5671 5675 5680 5685 5690 5694 5700 5705 5708 5713 5718 5723
5727 5723 5720 5717 5712 5709 5705 5702 5697 5693 5689 5685 5680 5676 5672 5668 5664 5659 5655 5652 5649 5646 5643 5641 5640 5638 5637 5638 5639 5640 5641 5641 5643 5643 5644 5646 5649 5652 5656 5661 5666 5671 5676 5682 5687 5692 5697 5702 5707
5720 5717 5713 5710 5706 5702 5698 5695 5691 5687 5682 5678 5673 5669 5665 5660 5656 5651 5647 5643 5639 5635 5632 5630 5628 5626 5625 5624 5624 5625 5625 5626 5626 5627 5628 5629 5631 5634 5637 5642 5647 5652 5657 5663 5669 5675 5680 5686 5692
5713 5710 5706 5702 5699 5695 5692 5687 5685 5680 5675 5671 5666 5661 5657 5652 5648 5643 5638 5634 5629 5625 5622 5619 5616 5614 5612 5610 5610 5609 5609 5609 5609 5610 5611 5612 5614 5616 5620 5624 5629 5634 5639 5645 5651 5657 5663 5669 5675
5706 5703 5699 5695 5691 5688 5685 5680 5678 5672 5667 5663 5658 5653 5648 5644 5639 5634 5629 5624 5619 5615 5611 5607 5604 5602 5599 5597 5595 5594 5593 5593 5592 5592 5594 5595 5597 5599 5603 5607 5611 5617 5623 5629 5635 5641 5647 5653 5660
5698 5695 5692 5688 5685 5682 5678 5673 5669 5664 5659 5655 5650 5645 5640 5635 5630 5625 5620 5614 5609 5604 5599 5595 5592 5589 5586 5584 5581 5579 5578 5577 5577 5577 5577 5579 5581 5584 5587 5591 5596 5601 5607 5613 5620 5626 5632 5638 5645
5691 5688 5685 5680 5677 5675 5670 5665 5662 5656 5651 5646 5641 5636 5631 5626 5621 5616 5611 5605 5600 5594 5589 5584 5580 5577 5573 5570 5568 5564 5562 5561 5561 5561 5561 5562 5564 5568 5572 5575 5580 5586 5591 5598 5604 5610 5617 5624 5631
5684 5681 5678 5673 5669 5666 5662 5657 5654 5648 5642 5637 5632 5626 5621 5617 5612 5606 5600 5595 5589 5584 5578 5573 5569 5565 5561 5557 5554 5550 5547 5545 5545 5545 5545 5546 5548 5551 5555 5559 5565 5571 5577 5583 5589 5596 5603 5611 5618
5676 5673 5670 5665 5660 5657 5654 5650 5646 5640 5634 5628 5623 5618 5613 5608 5603 5597 5591 5585 5579 5573 5568 5562 5558 5553 5549 5545 5541 5536 5533 5531 5530 5529 5529 5530 5532 5535 5539 5544 5549 5556 5562 5568 5575 5582 5590 5597 5605
5668 5665 5661 5657 5652 5648 5645 5642 5637 5631 5625 5619 5614 5608 5604 5599 5593 5587 5581 5575 5569 5563 5557 5551 5546 5541 5536 5532 5527 5523 5520 5517 5516 5515 5515 5515 5518 5521 5524 5529 5535 5542 5548 5554 5562 5569 5577 5584 5592
5660 5657 5652 5648 5644 5639 5635 5636 5629 5622 5615 5610 5605 5599 5594 5589 5583 5578 5572 5566 5559 5553 5547 5541 5535 5529 5524 5520 5515 5511 5508 5505 5504 5503 5503 5503 5505 5508 5511 5516 5521 5528 5535 5541 5549 5557 5564 5572 5580
5651 5648 5644 5641 5636 5631 5626 5628 5620 5614 5607 5601 5596 5591 5585 5580 5574 5568 5562 5556 5549 5543 5537 5531 5525 5519 5514 5509 5504 5500 5497 5495 5493 5492 5492 5493 5494 5496 5499 5503 5508 5515 5522 5529 5537 5545 5553 5561 5569